Weather History for KBNA - March, 2014

Change the Weather History Date:

Tuesday, March 18, 2014

  Actual Average Record
Temperature  
Mean Temperature 47 °F 51 °F  
Max Temperature 56 °F 62 °F 86 °F (1908)
Min Temperature 37 °F 40 °F 17 °F (1902)
Degree Days  
Heating Degree Days 18    
Month to date heating degree days 345  
Since 1 July heating degree days 3530  
Cooling Degree Days 0    
Month to date cooling degree days 0  
Year to date cooling degree days 0  
Moisture  
Dew Point 39 °F    
Average Humidity 79    
Maximum Humidity 92    
Minimum Humidity 66    
Precipitation  
Precipitation 0.00 in 0.13 in 2.45 in (1943)
Month to date precipitation 3.14 2.35  
Year to date precipitation 10.84 10.04  
Snow  
Snow 0.00 in 0.00 in 0.20 in (1893)
Month to date snowfall 0.1 0.6  
Since 1 July snowfall 1.5 6.0  
Snow Depth 0.00 in    
Sea Level Pressure  
Sea Level Pressure 29.90 in    
Wind  
Wind Speed 9 mph (SSE)    
Max Wind Speed 26 mph    
Max Gust Speed 35 mph    
Visibility 8 miles    
Events      
T = Trace of Precipitation, MM = Missing Value Source: NWS Daily Summary

Daily Weather History Graph

Daily Weather History Graph

Search for Another Location

Airport or City:

Trip Planner

Search our weather history database for the weather conditions in past years. The results will help you decide how hot, cold, wet, or windy it might be!

Date:

Astronomy

Mar. 18, 2014 Rise Set
Actual Time 6:53 AM CDT 6:56 PM CDT
Civil Twilight 6:27 AM CDT 7:22 PM CDT
Nautical Twilight 5:57 AM CDT 7:52 PM CDT
Astronomical Twilight 5:27 AM CDT 8:22 PM CDT
Moon 9:08 PM CDT (3/18) 7:46 AM CDT (3/18)
Length of Visible Light 12h 54m
Length of Day
12h 03m
Waning Gibbous, 96% of the Moon is Illuminated
Mar 18
Waning Gibbous
Mar 23
Last Quarter
Mar 30
New
Apr 7
First Quarter
Apr 15
Full

Hourly Weather History & Observations

Time (CDT) Temp. Windchill Dew Point Humidity Pressure Visibility Wind Dir Wind Speed Gust Speed Precip Events Conditions
12:37 AM 37.4 °F 33.8 °F 33.8 °F 87% 29.87 in 10.0 mi ESE 4.6 mph - N/A   Overcast
12:53 AM 37.9 °F 34.4 °F 34.0 °F 86% 29.88 in 10.0 mi ESE 4.6 mph - N/A   Overcast
1:34 AM 37.4 °F 32.1 °F 33.8 °F 87% 29.86 in 10.0 mi ESE 6.9 mph - N/A   Overcast
1:53 AM 37.0 °F 32.4 °F 34.0 °F 89% 29.86 in 10.0 mi SSE 5.8 mph - N/A   Overcast
2:36 AM 37.4 °F 34.9 °F 33.8 °F 87% 29.85 in 10.0 mi SE 3.5 mph - N/A   Overcast
2:53 AM 37.9 °F - 34.0 °F 86% 29.86 in 10.0 mi Calm Calm - N/A   Overcast
3:11 AM 37.4 °F - 33.8 °F 87% 29.84 in 10.0 mi Calm Calm - N/A   Overcast
3:45 AM 37.4 °F 34.9 °F 33.8 °F 87% 29.84 in 10.0 mi East 3.5 mph - N/A   Overcast
3:53 AM 37.9 °F 35.5 °F 34.0 °F 86% 29.85 in 10.0 mi East 3.5 mph - N/A   Overcast
4:53 AM 37.9 °F - 35.1 °F 89% 29.84 in 7.0 mi Calm Calm - N/A   Overcast
5:00 AM 37.4 °F 34.9 °F 35.6 °F 93% 29.83 in 7.0 mi East 3.5 mph - N/A   Overcast
5:53 AM 37.9 °F 35.5 °F 35.1 °F 89% 29.86 in 6.0 mi NNE 3.5 mph - N/A   Overcast
6:53 AM 37.9 °F 34.4 °F 36.0 °F 93% 29.89 in 2.0 mi ENE 4.6 mph - N/A   Overcast
7:42 AM 37.4 °F - 35.6 °F 93% 29.90 in 1.5 mi Calm Calm - N/A   Overcast
7:53 AM 37.9 °F - 36.0 °F 93% 29.91 in 1.5 mi Calm Calm - N/A   Overcast
8:29 AM 39.2 °F - 37.4 °F 93% 29.92 in 2.0 mi Calm Calm - N/A   Overcast
8:53 AM 39.0 °F - 37.0 °F 93% 29.94 in 2.0 mi Calm Calm - N/A   Overcast
9:31 AM 39.2 °F 35.9 °F 37.4 °F 93% 29.95 in 3.0 mi SE 4.6 mph - N/A   Overcast
9:53 AM 41.0 °F 39.0 °F 37.9 °F 89% 29.97 in 3.0 mi ESE 3.5 mph - N/A   Overcast
10:21 AM 42.8 °F 41.1 °F 39.2 °F 87% 29.98 in 3.0 mi SSW 3.5 mph - N/A   Overcast
10:53 AM 43.0 °F - 39.9 °F 89% 29.99 in 3.0 mi Calm Calm - N/A   Overcast
11:23 AM 46.4 °F 42.4 °F 41.0 °F 81% 29.99 in 8.0 mi SSW 8.1 mph - N/A   Overcast
11:53 AM 46.9 °F - 41.0 °F 80% 29.99 in 9.0 mi South 6.9 mph - N/A   Overcast
12:53 PM 50.0 °F - 42.1 °F 74% 29.98 in 10.0 mi South 11.5 mph - N/A   Overcast
1:53 PM 52.0 °F - 44.1 °F 74% 29.95 in 10.0 mi SSE 9.2 mph - N/A   Overcast
2:53 PM 54.0 °F - 44.1 °F 69% 29.92 in 10.0 mi South 13.8 mph - N/A   Mostly Cloudy
3:53 PM 54.0 °F - 44.1 °F 69% 29.90 in 10.0 mi South 9.2 mph - N/A   Overcast
4:53 PM 55.0 °F - 44.1 °F 67% 29.87 in 10.0 mi SSE 17.3 mph - N/A   Mostly Cloudy
5:40 PM 55.4 °F - 44.6 °F 67% 29.86 in 10.0 mi South 12.7 mph - N/A   Mostly Cloudy
5:53 PM 55.9 °F - 44.1 °F 64% 29.86 in 10.0 mi SSE 15.0 mph - N/A   Mostly Cloudy
6:53 PM 53.1 °F - 43.0 °F 69% 29.86 in 10.0 mi South 17.3 mph 24.2 mph N/A   Mostly Cloudy
7:53 PM 52.0 °F - 43.0 °F 71% 29.87 in 10.0 mi South 16.1 mph 25.3 mph N/A   Scattered Clouds
8:06 PM 51.8 °F - 42.8 °F 71% 29.87 in 10.0 mi South 10.4 mph - N/A   Mostly Cloudy
8:53 PM 51.1 °F - 42.1 °F 71% 29.88 in 10.0 mi South 17.3 mph 25.3 mph N/A   Mostly Cloudy
9:53 PM 51.1 °F - 42.1 °F 71% 29.90 in 10.0 mi South 24.2 mph 34.5 mph N/A   Mostly Cloudy
10:53 PM 51.1 °F - 42.1 °F 71% 29.94 in 10.0 mi SSW 18.4 mph 24.2 mph N/A   Mostly Cloudy
11:53 PM 52.0 °F - 43.0 °F 71% 29.95 in 10.0 mi South 17.3 mph 27.6 mph N/A   Overcast